TimeAKDT,TemperatureF,Dew PointF,Humidity,Sea Level PressureIn,VisibilityMPH,Wind Direction,Wind SpeedMPH,Gust SpeedMPH,PrecipitationIn,Events,Conditions,WindDirDegrees,DateUTC
12:43 AM,-9999,-9999,N/A,29.70,2.0,Calm,Calm,-,N/A,,Overcast,0,2012-09-02 08:43:00
12:51 AM,-9999,-9999,N/A,29.70,9.0,Calm,Calm,-,N/A,,Overcast,0,2012-09-02 08:51:00
12:53 AM,-9999,-9999,N/A,29.71,9.0,Calm,Calm,-,N/A,,Overcast,0,2012-09-02 08:53:00
1:53 AM,50.0,48.9,96,29.72,10.0,Calm,Calm,-,N/A,,Overcast,0,2012-09-02 09:53:00
2:53 AM,48.9,46.9,93,29.73,1.8,Calm,Calm,-,N/A,,Overcast,0,2012-09-02 10:53:00
2:58 AM,48.2,48.2,100,29.73,3.0,Calm,Calm,-,N/A,,Overcast,0,2012-09-02 10:58:00
3:53 AM,48.9,48.0,97,29.75,10.0,Calm,Calm,-,N/A,,Overcast,0,2012-09-02 11:53:00
4:53 AM,48.0,48.0,100,29.76,10.0,Calm,Calm,-,N/A,,Overcast,0,2012-09-02 12:53:00
5:53 AM,51.1,46.0,83,29.78,10.0,South,9.2,-,N/A,,Overcast,190,2012-09-02 13:53:00
6:53 AM,51.1,46.0,83,29.79,10.0,SSW,9.2,-,N/A,,Overcast,200,2012-09-02 14:53:00
7:53 AM,51.1,45.0,80,29.80,10.0,SSE,5.8,-,N/A,,Overcast,150,2012-09-02 15:53:00
8:53 AM,50.0,46.9,89,29.81,10.0,South,8.1,-,0.05,Rain,Light Rain,190,2012-09-02 16:53:00
9:53 AM,52.0,44.1,74,29.82,10.0,SSW,16.1,23.0,0.00,,Overcast,210,2012-09-02 17:53:00
10:53 AM,53.1,45.0,74,29.82,10.0,SSW,13.8,-,0.00,Rain,Light Rain,210,2012-09-02 18:53:00
11:53 AM,53.1,43.0,69,29.83,10.0,SSW,13.8,-,0.00,Rain,Light Rain,210,2012-09-02 19:53:00
12:53 PM,51.1,44.1,77,29.83,10.0,SSW,10.4,20.7,0.00,Rain,Light Rain,200,2012-09-02 20:53:00
1:53 PM,53.1,43.0,69,29.82,10.0,South,4.6,-,0.00,Rain,Light Rain,190,2012-09-02 21:53:00
2:53 PM,52.0,45.0,77,29.81,10.0,ESE,9.2,-,0.01,,Overcast,120,2012-09-02 22:53:00
3:53 PM,51.1,45.0,80,29.81,10.0,West,3.5,-,0.00,Rain,Light Rain,260,2012-09-02 23:53:00
4:53 PM,51.1,46.9,86,29.78,10.0,Calm,Calm,-,0.01,Rain,Light Rain,0,2012-09-03 00:53:00
5:53 PM,51.1,46.9,86,29.76,10.0,Calm,Calm,-,0.01,Rain,Light Rain,0,2012-09-03 01:53:00
6:53 PM,50.0,46.9,89,29.75,10.0,Calm,Calm,-,0.01,Rain,Light Rain,0,2012-09-03 02:53:00
7:53 PM,48.9,46.9,93,29.75,9.0,Calm,Calm,-,0.01,Rain,Light Rain,0,2012-09-03 03:53:00
8:53 PM,48.9,48.0,97,29.73,9.0,Calm,Calm,-,0.01,Rain,Light Rain,0,2012-09-03 04:53:00
9:53 PM,48.9,48.0,97,29.71,10.0,Calm,Calm,-,0.05,Rain,Light Rain,0,2012-09-03 05:53:00
10:53 PM,48.0,46.9,96,29.71,7.0,Calm,Calm,-,0.02,Rain,Light Rain,0,2012-09-03 06:53:00
11:53 PM,53.1,48.0,83,29.69,7.0,South,11.5,20.7,0.02,Rain,Light Rain,190,2012-09-03 07:53:00